Regional Weather Roundup
Issued by NWS Pendleton, OR

Home | Current Version | Previous Version | Text Only | Print | Product List | Glossary On
Versions: 1 2 3 4 5 6 7 8 9 10 11 12 13 14 15 16 17 18 19 20 21 22 23 24 25 26 27 28 29 30 31 32 33 34 35 36 37 38 39 40 41 42 43 44 45 46 47 48 49 50
000
ASUS46 KPDT 212025
RWRPDT
PENDLETON REGIONAL WEATHER ROUNDUP
NATIONAL WEATHER SERVICE PENDLETON OREGON
100 PM PDT SAT APR 21 2018

NOTE: FAIR INDICATES FEW OR NO CLOUDS BELOW 12,000 FEET WITH NO
SIGNIFICANT WEATHER AND/OR OBSTRUCTIONS TO VISIBILITY.

# INDICATES UNOFFICIAL STATION AND DATA

WAZ520-212110-
EAST SLOPES OF WASHINGTON CASCADES

CITY            SKY/WX      TMP DP  RH  WIND    PRES   REMARKS
#BULLFROG       N/A         46  27  47  W12     N/A    WCI 40
#CLE ELUM HS    N/A         47  29  49  W6      30.24R
#EASTON DOT     N/A         43  30  60  N2      N/A
#ELK HTS DOT    N/A         48  47  96  SW6     N/A
#GLENWOOD       N/A         54  31  41  W6      30.28S
#NELSON 3SW     N/A         43  28  55  CALM    30.52R
#NILE           N/A         50  25  37  W7      29.59R
#TEANAWAY 4NE   N/A         49  31  50  W6      N/A
#TROUT LAKE 1NE N/A         51  31  46  W14     30.31F
#TROUT LAKE 1E  N/A         53  29  39  SW2     30.35S
$$

WAZ521-212110-
SIMCOE HIGHLANDS

CITY            SKY/WX      TMP DP  RH  WIND    PRES   REMARKS
#BICKLETON HS   N/A         51  24  34  NW6     29.89F
#SATUS PASS DOT N/A         49  22  34  W15G26  N/A    WCI 43
#CENTERVILLE 1SWN/A         51  33  50  W18     30.28F
#GOLDENDALE 1NE N/A         54   7  15  SW7     N/A
#GOLDENDALE 4W  N/A         54  11  18  W14     30.32F
#GOODNOE HILLS  N/A         58  31  36  SW23    30.20F
#LYLE 6NE       N/A         51  37  59  S15G24  30.34F
#PITT 4SE       N/A         48  34  58  CALM    30.34F
$$

WAZ026-212110-
KITTITAS VALLEY

CITY            SKY/WX      TMP DP  RH  WIND    PRES   REMARKS
ELLENSBURG AP   SUNNY       54  27  35  NW26G35 30.29R
#ELLENSBURG CWU N/A         52  26  36  NW22    30.22R
#ELLENSBURG 3NE N/A         50  28  42  W15G24  28.35R
#ELLENSBURG 1E  N/A         53  29  39  NW3     30.32R
#KITTITAS 3S    N/A         53  29  39  N21G30  30.25R
#MANASTASH RDG  N/A         51  50  96  NW22G30 N/A
#ROCKY CYN DOT  N/A         53  29  39  W21G35  N/A
#RYEGRASS DOT   N/A         48  25  40  CALM    N/A
$$

WAZ027-212110-
YAKIMA VALLEY

CITY            SKY/WX      TMP DP  RH  WIND    PRES   REMARKS
SUNNYSIDE AP    PTCLDY      60  23  24  S5      30.27F
YAKIMA AIRPORT  SUNNY       62  20  20  VRB5    30.27S
YAKIMA-VAGABOND SUNNY       60  21  22  N6      30.24F
#DONALD 2NE     N/A         64   6  10  NW8     29.10F
#GRANDVIEW      N/A         61  17  18  SW2     30.27F
#MABTON         N/A         61  27  27  W3      30.27F
#MOXEE 2E       N/A         37  N/A N/A SW12    29.79S WCI 29
#NACHES 2SW     N/A         56  28  34  W5      30.26S
#OUTLOOK DOT    N/A         61  16  17  CALM    30.24F
#PARKER DOT     N/A         61  13  15  NE12    30.25F
#TERRACE HTS    N/A         67  32  27  CALM    30.22S
#TOPPENISH      N/A         60  24  25  CALM    30.18F
#I82 S UMTANUM RN/A         56  26  31  W1      N/A
#UNION GAP DOT  N/A         60  19  20  N5      30.30S
#W YAKIMA       N/A         59  28  30  N3      30.25S
#WHITE SWAN 5E  N/A         61  26  26  W12     30.27S
#WILEY CITY 3W  N/A         60  19  20  W1      30.24R
#ZILLAH DOT     N/A         62  18  18  W7      N/A
$$

WAZ028-212110-
LOWER COLUMBIA BASIN...WASHINGTON

CITY            SKY/WX      TMP DP  RH  WIND    PRES   REMARKS
HANFORD         MOSUNNY     63  22  21  W14     30.25S
PASCO           SUNNY       65  23  20  W10     30.27F
PROSSER AWOS    N/A         63  25  23  W12     30.30F
RICHLAND AWOS   SUNNY       66  23  19  W3      30.27F
#BASIN CITY 5SW N/A         62  32  32  CALM    30.24S
#BENTON CITY    N/A         63  28  26  CALM    30.16F
#CONNELL 5N     N/A         60  27  28  W12     30.23S
#CONNELL 5NW    N/A         61  28  28  W15G26  30.18R
#ELTOPIA 6NW    N/A         61  28  28  W1      29.23S
#KAHLOTUS       N/A         58  24  27  NW25G41 30.22R
#KENNEWICK 3S   N/A         63  33  32  W2      30.26S
#PROSSER DOT    N/A         63  20  19  W13     30.28F
#SAGEMOOR 2W    N/A         61  25  25  W5      30.11F
#TOUCHET 2S     N/A         62  35  36  SW12    30.25F
#WEST PASCO     N/A         68  28  22  CALM    30.29F
$$

WAZ029-212110-
FOOTHILLS OF THE BLUES...WASHINGTON

CITY            SKY/WX      TMP DP  RH  WIND    PRES   REMARKS
WALLA WALLA AP  SUNNY       60  31  33  W16G24  30.28S
#CLYDE 6NW      N/A         59  27  29  SW17G26 30.23S
#DELANEY DOT    N/A         61  27  27  SW10    30.28R
#LOWDEN 2SE     N/A         62  32  32  W12     30.25S
#PLEASANT VIEW 1N/A         59  31  34  SW9     30.27S
#PRESCOTT       N/A         64  34  33  CALM    30.24S
#WHITMAN COLLEGEN/A         60  30  32  W5      30.32S
#WAITSBURG 5S   N/A         56  36  47  SW10    30.35F
#WAITSBURG 6SSE N/A         56  25  30  S8      30.10F
#WAITSBURG 8N   N/A         79  N/A N/A S23     30.03S
#WALLA WALLA 5E N/A         59  38  45  SW15    N/A
#WHITMAN MISSIONN/A         62  33  34  W12     30.29S
$$

WAZ030-212110-
BLUE MOUNTAINS...WASHINGTON

CITY            SKY/WX      TMP DP  RH  WIND    PRES   REMARKS
#DIXIE 5SE      N/A         49  30  48  W13     30.19S WCI 44
$$

ORZ009-041-WAZ024-212110-
COLUMBIA RIVER GORGE

CITY            SKY/WX      TMP DP  RH  WIND    PRES   REMARKS
HOOD RIVER AP   SUNNY       57  32  38  W7      30.36F
THE DALLES AP   SUNNY       63  32  31  NW18G24 30.34F
#ARLINGTON AIRPON/A         59  33  37  W16     30.31F
#CELILO DOT     N/A         61  32  33  SW8     N/A
#LYLE           N/A         57  35  43  W15G26  30.35F
#MARYHILL       N/A         57  30  35  N16G25  N/A
#MURDOCK        N/A         57  36  45  NW13    30.30F
#RUFUS DOT      N/A         59  N/A N/A W18G28  N/A

$$

ORZ510-212110-
NORTH CENTRAL OREGON

CITY            SKY/WX      TMP DP  RH  WIND    PRES   REMARKS
#ANTELOPE       N/A         52  30  43  SW7     30.17F
#CHENOWITH 1W   N/A         50  32  50  W24     N/A
#COW CYN RST AREN/A         51  N/A N/A W7      N/A
#DUFUR          N/A         57  32  38  N7      30.28F
#DUFUR 9E       N/A         49  27  42  NW14G26 30.37F WCI 44
#GRASS VALLEY 1SN/A         52  33  48  W6      30.31F
#KENT DOT       N/A         51  23  33  SW7     N/A
#MAUPIN SCHOOL  N/A         58  33  39  NW1     30.36F
#SHANIKO 5WSW   N/A         49  24  37  W12     N/A    WCI 44
#SHANIKO 4NW    N/A         46  26  45  NW8     30.31S
#TYGH VALLEY 2NEN/A         58  34  40  N3      30.28F
#WAPANITIA AIRPON/A         55  31  40  W1      30.31F
#WASCO 5NE      N/A         55  34  45  N10     30.30F
$$

ORZ511-212110-
CENTRAL OREGON

CITY            SKY/WX      TMP DP  RH  WIND    PRES   REMARKS
BEND AIRPORT    PTCLDY      55  28  35  CALM    30.29F
MADRAS AIRPORT  PTCLDY      54  30  40  N9      30.32F
PRINEVILLE AP   MOSUNNY     54  25  32  W5      30.29F
REDMOND AIRPORT SUNNY       56  30  37  N7      30.29F
#ASHWOOD SCHOOL N/A         53  30  41  N2      30.25F
#BEND 1SW       N/A         52  34  50  SE2     N/A
#BEND-AWBREY    N/A         55  34  45  N3      30.22F
#BEND-KIM LN    N/A         53  33  46  N5      30.19F
#CULVER         N/A         53  32  45  E5      30.09F
#CULVER 8W      N/A         56  25  30  CALM    30.27F
#LAKE BILLY CHINN/A         54  N/A N/A NW5     30.32F
#POWELL BUTTE   N/A         52  24  33  NW7     30.20F
#PRINEVILLE     N/A         55  33  43  N3      30.35F
#PRINEVILLE 3N  N/A         55  33  43  W6      30.24F
#WARM SPRINGS   N/A         57  30  35  CALM    30.15F

$$


ORZ509-212110-
EAST SLOPES OF OREGON CASCADES

CITY            SKY/WX      TMP DP  RH  WIND    PRES   REMARKS
SISTERS AWOS    N/A         52  28  39  W13     30.24F
#BLUE BOX PASS  N/A         44  N/A N/A SW2     N/A
#CAMP SHERMAN   N/A         58  28  32  N2      30.32F
#LA PINE 4NW    N/A         52  28  39  CALM    30.25F
#LAVA BUTTE DOT N/A         53  29  39  NW1     N/A
#SISTERS ODOT   N/A         52  27  38  W3      N/A
#SISTERS 3N     N/A         52  28  39  NW2     30.26F
#SUNRIVER       N/A         53  34  48  N2      30.21F
#TUMALO 3W      N/A         51  30  44  NE6     30.12F
#WANOGA BUTTE D N/A         43  N/A N/A SE3     N/A

$$

ORZ044-212110-
LOWER COLUMBIA BASIN...OREGON

CITY            SKY/WX      TMP DP  RH  WIND    PRES   REMARKS
HERMISTON       N/A         64  29  27  SW22G30 30.29F
#BOARDMAN SCHOOLN/A         62  32  32  SW15    30.28F
#BOARDMAN 8SW   N/A         60  33  36  SW17    30.30S
#ECHO 8SW       N/A         61  29  30  CALM    30.31F
#I-84 EX 198 DOTN/A         59  32  36  NE18G26 N/A
#IONE SCHOOL    N/A         58  28  32  W8G24   30.31F
#UMATILLA       N/A         63  29  28  SW10    30.21F
$$

ORZ507-212110-
NORTHERN FOOTHILLS OF THE BLUES

CITY            SKY/WX      TMP DP  RH  WIND    PRES   REMARKS
PENDLETON AIRPT SUNNY       60  25  26  W23G31  30.29F
#ADAMS 3WNW     N/A         58  32  37  W14G24  30.27F
#ATHENA         N/A         55  29  37  W7      30.31S
#CAYUSE         N/A         56  27  33  W17G26  30.27F
#HELIX SCHOOL   N/A         57  30  35  N10     30.27F
#HELIX 3N       N/A         55  36  49  W15G25  30.28F
#HOLDMAN 5SE    N/A         57  33  40  W15     30.27F
#HOLDMAN 6E     N/A         56  35  45  SW13    30.08F
#M-F GROVE ELEM N/A         60  24  25  W6      30.26S
#M-FREEWATER 5SEN/A         59  35  40  W13     30.28S
#PENDLETON DNTN N/A         65  32  29  W5      N/A
#PDT AQUATIC CTRN/A         60  32  35  SW8     30.28S
#PDT SUNRIDGE   N/A         60  28  29  W8      30.31F
#PENDLETON 6SE  N/A         60  27  28  W10     30.24F
#PENDLETON 7NW  N/A         60  35  39  NW9     N/A
#PILOT ROCK 1S  N/A         59  30  33  W5      30.29F
#PILOT ROCK     N/A         59  29  32  CALM    30.29F
#TUTUILLA       N/A         58  27  30  W7      30.34F
#UMAPINE 2E     N/A         63  38  39  SW8     30.26S

$$

ORZ508-212110-
SOUTHERN FOOTHILLS OF THE BLUES

CITY            SKY/WX      TMP DP  RH  WIND    PRES   REMARKS
#AJAX           N/A         54  26  34  CALM    30.43F
#CONDON 5W      N/A         50  21  32  NW7     30.27F
#FOSSIL SCHOOL  N/A         52  28  39  NW7     30.23F
#HEPPNER EOC    N/A         54  31  41  W9      30.22S
#HEPPNER 4NE    N/A         50  32  50  W8G25   30.28S
#LEXINGTON 2SE  N/A         59  30  33  NW7G25  30.27F
#MIKKALO        N/A         57  19  22  NW16G26 30.40F
#OLEX 4N        N/A         56  31  38  SW15    30.29F
#RUGGS 2SW      N/A         51  28  41  W8      30.30F

$$

ORZ502-503-212110-
BLUE MOUNTAINS

CITY            SKY/WX      TMP DP  RH  WIND    PRES   REMARKS
MEACHAM         PTCLDY      49  28  44  VRB3    30.28F
#BATTLE MTN DOT N/A         50  29  44  N1      N/A
#GRANITE        N/A         54  28  36  W2      29.88F
#HARDMAN 10S    N/A         50  30  46  CALM    30.36S
#HEPPNER 15SE   N/A         49  32  52  NE2     25.77F
#LADD CYN SMT   N/A         50  33  52  N13     N/A
#LADD CREEK ODOTN/A         51  33  50  NE8     N/A
#N POWDER DOT   N/A         55  35  47  NE16G25 N/A
#PIKES PEAK     N/A         46  17  31  SW28G35 27.99S WCI 37
#SUMMERVILLE 5NWN/A         54  32  43  SW13    26.90S
#TOLLGATE       N/A         41  26  55  S9      30.27S
#TROY SCHOOL    N/A         62  31  31  SW6     30.08F
#UKIAH          N/A         53  33  46  NW7     30.15F
#WESTON 4E      N/A         49  30  48  SW5     30.24S
$$

ORZ505-212110-
JOHN DAY BASIN

CITY            SKY/WX      TMP DP  RH  WIND    PRES   REMARKS
JOHN DAY        SUNNY       57  32  38  W12     30.25F
#ANTELOPE 9ESE  N/A         59  28  30  N6      N/A
#MITCHELL 8NW   N/A         49  32  52  NW3     30.30F
#MONUMENT HS    N/A         59  27  29  S9      30.22F
#MT. VERNON 5SE N/A         54  34  47  NW7     30.20F
$$

ORZ506-212110-
OCHOCO AND JOHN DAY HIGHLANDS

CITY            SKY/WX      TMP DP  RH  WIND    PRES   REMARKS
#HORSE RIDGE DO N/A         51  27  39  NW8     N/A
#KEYES SMT DOT  N/A         48  29  47  NW12    N/A    WCI 43
#PAULINA ODOT   N/A         55  29  37  SW8     N/A
#PINE MTN OBS   N/A         43  30  60  CALM    N/A
#PRAIRIE CITY   N/A         60  37  42  CALM    30.39F
#SENECA         N/A         52  N/A N/A W5      N/A
#SENECA 9NW     N/A         52  32  46  SE3     30.18F
$$

ORZ049-212110-
GRANDE RONDE VALLEY

CITY            SKY/WX      TMP DP  RH  WIND    PRES   REMARKS
LA GRANDE       PTCLDY      56  34  43  NW12    30.27F
#COVE SCHOOL    N/A         56  35  45  N1      30.26F
#COVE 6NW       N/A         54  35  48  N3      30.26F
#ELGIN 3N       N/A         55  28  35  W6      30.22F
#ELGIN 1E       N/A         55  33  43  S7      N/A
#IMBLER SCHOOL  N/A         52  33  48  CALM    30.22F
#ISLAND CITY 4N N/A         56  40  55  S2      30.42F
#LADD CYN DOT   N/A         54  37  52  N8      N/A
#UNION 1S       N/A         56  35  45  NW1     30.24F
$$

ORZ050-212110-
WALLOWA COUNTY

CITY            SKY/WX      TMP DP  RH  WIND    PRES   REMARKS
#ENTERPRISE HS  N/A         53  34  48  NW8     30.09F
#IMNAHA SCHOOL  N/A         62  35  36  NW2     30.21F
#IMNAHA 10S     N/A         56  35  45  NE3     30.19S
#JOSEPH         N/A         50  28  42  N6      30.39F
#JOSEPH 3N      N/A         53  27  36  N8      30.24S
#JOSEPH 3W      N/A         50  36  58  N3      30.05S
#LOSTINE        N/A         53  33  46  NW6     30.03F
#LOSTINE 3SE    N/A         52  31  44  E15     30.30F
#MT HOWARD 8000 N/A         31  28  88  E5      30.23R
#PROMISE 1S     N/A         47  30  51  W10     30.32F
#WALLOWA LAKE   N/A         55  36  49  NW1     30.26F



$$



USA.gov is the U.S. government's official web portal to all federal, state and local government web resources and services.